Station PPXA2 - Point Pigot Image indicating link to RSS feed of recent meteorological observations for station PPXA2


Conditions at PPXA2 as of
(3:04 pm AKDT)
2304 GMT on 05/18/2024:
     

Click on the graph icon in the table below to see a time series plot of the last five days of that observation.

5-day plot - Wind Direction Wind Direction (WDIR): NE ( 40 deg true )
5-day plot - Wind Speed Wind Speed (WSPD): 6 kts
5-day plot - Wind Gust Wind Gust (GST): 11 kts
5-day plot - Atmospheric Pressure Atmospheric Pressure (PRES):30.08 in
5-day plot - Air Temperature Air Temperature (ATMP): 46.9 °F
5-day plot - Dew Point Dew Point (DEWP): 37.9 °F
5-day plot - Wind Chill Wind Chill (CHILL): 43.5 °F
5-day plot - Wind Speed at 10 Meters Wind Speed at 10 meters (WSPD10M): 6 kts
5-day plot - Wind Speed at 20 Meters Wind Speed at 20 meters (WSPD20M): 6 kts
5-day plot -  Wind Speed, Wind Gust and Atmospheric Pressure Combined plot of Wind Speed, Gust, and Air Pressure
Previous observations
TIME
(AKDT)
5-day plot - Wind Direction
WDIR
 
5-day plot - Wind Speed
WSPD
kts
5-day plot - Wind Gust
GST
kts
5-day plot - Wave Height
WVHT
ft
5-day plot - Dominant Wave Period
DPD
sec
5-day plot - Average Wave Period
APD
sec
5-day plot - Mean Wave Direction
MWD
 
5-day plot - Atmospheric Pressure
PRES
in
5-day plot - Pressure Tendency
PTDY
in
5-day plot - Air Temperature
ATMP
°F
5-day plot - Water Temperature
WTMP
°F
5-day plot - Dew Point
DEWP
°F
5-day plot - Salinity
SAL
psu
5-day plot - Visibility
VIS
nmi
5-day plot - Tide (above MLLW)
TIDE
ft
2024-05-18 02:54 pm NE 5 8----30.08- 46.9- 39.4---
2024-05-18 02:45 pmENE 6 9----30.08- 46.8- 39.4---
2024-05-18 02:35 pm NE 4 11----30.09- 46.8- 39.6---
2024-05-18 02:25 pm NE 5 9----30.09- 47.1- 40.5---
2024-05-18 02:15 pm N 3 8----30.09- 46.9- 41.0---
2024-05-18 02:04 pm N 3 6----30.09- 46.8- 40.8---
2024-05-18 01:55 pm NE 3 9----30.09- 46.9- 40.6---
2024-05-18 01:45 pm NE 4 11----30.09- 46.8- 39.9---
2024-05-18 01:35 pm NE 4 9----30.09- 46.6- 39.6---
2024-05-18 01:24 pm NE 4 6----30.10- 46.0- 38.3---
2024-05-18 01:15 pm NE 3 5----30.10- 45.9- 37.6---
2024-05-18 01:06 pm E 5 8----30.10- 45.3- 37.6---
2024-05-18 12:54 pm E 9 12----30.10- 45.0- 39.0---
2024-05-18 12:45 pm E 10 13----30.10- 45.1- 40.1---
2024-05-18 12:34 pmENE 5 7----30.10- 45.3- 41.7---
2024-05-18 12:24 pm NE 4 8----30.10- 45.5- 42.4---
2024-05-18 12:15 pm N 3 4----30.10- 45.0- 42.1---
2024-05-18 12:05 pmNNW 3 5----30.11- 44.4- 41.4---
2024-05-18 11:55 amNNW 3 4----30.11- 44.2- 41.2---
2024-05-18 11:45 am N 2 4----30.11- 44.8- 41.0---
2024-05-18 11:35 amNNE 2 5----30.11- 45.3- 40.6---
2024-05-18 11:25 am N 2 8----30.11- 45.7- 40.6---
2024-05-18 11:15 am NE 5 10----30.11- 45.5- 40.3---
2024-05-18 11:04 am NE 5 9----30.11- 45.3- 39.9---
2024-05-18 10:54 am NE 5 8----30.10- 45.5- 40.3---
2024-05-18 10:34 am NE 5 9----30.11- 45.3- 40.3---
2024-05-18 10:24 am NE 6 9----30.11- 45.1- 39.9---
2024-05-18 10:14 am NE 6 8----30.11- 45.1- 40.5---
2024-05-18 10:04 am NE 5 8----30.11- 45.1- 40.8---
2024-05-18 09:55 am NE 6 8----30.11- 45.0- 40.8---
2024-05-18 09:44 am NE 5 8----30.11- 45.0- 41.0---
2024-05-18 09:34 am NE 4 7----30.11- 44.8- 41.2---
2024-05-18 09:25 am NE 5 8----30.11- 44.8- 41.2---
2024-05-18 09:15 am NE 4 6----30.11- 44.6- 41.0---
2024-05-18 09:05 amENE 5 6----30.11- 44.2- 40.8---
2024-05-18 08:55 am E 4 5----30.11- 44.2- 41.0---
2024-05-18 08:45 am E 2 4----30.11- 44.2- 41.0---
2024-05-18 08:35 amWSW 2 3----30.11- 43.9- 40.8---
2024-05-18 08:26 amWSW 2 3----30.11- 43.7- 40.8---
2024-05-18 08:15 amWSW 3 4----30.11- 43.5- 40.8---
2024-05-18 08:05 am W 3 4----30.11- 43.3- 40.8---
2024-05-18 07:55 am W 3 4----30.11- 43.3- 40.8---
2024-05-18 07:44 am W 3 4----30.11- 43.0- 40.6---
2024-05-18 07:35 am W 2 3----30.11- 43.0- 40.8---
2024-05-18 07:24 amWNW 2 3----30.11- 43.0- 40.8---
2024-05-18 07:15 amWNW 2 2----30.11- 43.0- 40.8---
2024-05-18 07:04 am- 0 2----30.11- 42.6- 40.5---
2024-05-18 06:54 am- 0 2----30.11- 42.4- 40.3---
2024-05-18 06:44 amWNW 1 2----30.11- 42.4- 40.3---
2024-05-18 06:34 amWNW 1 2----30.11- 42.4- 40.3---
2024-05-18 06:25 am- 0 1----30.11- 42.4- 40.3---
2024-05-18 06:14 amWNW 1 2----30.11- 42.4- 40.3---
2024-05-18 06:05 am- 0 2----30.11- 42.1- 39.9---
2024-05-18 05:55 am- 0 2----30.11- 41.9- 39.6---
2024-05-18 05:45 amWNW 1 2----30.11- 41.9- 39.6---
2024-05-18 05:35 amWNW 1 2----30.11- 41.9- 39.6---
2024-05-18 05:24 amWNW 2 2----30.11- 41.9- 39.4---
2024-05-18 05:15 am NW 2 2----30.12- 41.7- 39.4---
2024-05-18 05:05 am NW 2 3----30.12- 41.7- 39.4---
2024-05-18 04:54 amWNW 1 2----30.12- 41.7- 39.4---
2024-05-18 04:44 am NW 1 2----30.12- 41.7- 39.2---
2024-05-18 04:35 amWNW 2 3----30.12- 41.4- 39.0---
2024-05-18 04:24 am NW 2 3----30.12- 41.5- 39.2---
2024-05-18 04:14 am NW 2 3----30.12- 41.7- 39.4---
2024-05-18 04:05 amWNW 1 2----30.12- 41.9- 39.6---
2024-05-18 03:55 am W 1 2----30.12- 42.1- 39.7---
2024-05-18 03:44 am- 0 2----30.13- 41.9- 39.6---
2024-05-18 03:35 am- 0 1----30.13- 41.5- 39.2---
2024-05-18 03:24 am NW 2 4----30.13- 41.7- 39.6---
2024-05-18 03:14 amWNW 2 3----30.13- 41.5- 39.6---
2024-05-18 03:04 amWNW 2 3----30.13- 41.4- 39.2---
2024-05-18 02:54 amWNW 2 3----30.13- 41.2- 39.0---
2024-05-18 02:44 amWNW 2 3----30.12- 41.2- 39.0---
2024-05-18 02:35 amWNW 3 3----30.12- 41.0- 39.0---
2024-05-18 02:25 amWNW 3 4----30.12- 40.8- 38.8---
2024-05-18 02:14 amWNW 3 4----30.12- 40.8- 38.8---
2024-05-18 02:04 amWNW 3 4----30.12- 41.0- 38.8---
2024-05-18 01:54 amWNW 3 4----30.12- 41.0- 38.7---
2024-05-18 01:44 amWNW 3 4----30.12- 41.0- 38.7---
2024-05-18 01:35 amWNW 3 4----30.12- 41.4- 39.0---
2024-05-18 01:24 amWNW 3 4----30.11- 41.5- 39.0---
2024-05-18 01:15 am W 2 3----30.11- 42.1- 39.6---
2024-05-18 01:04 amWNW 2 3----30.11- 42.3- 39.6---
2024-05-18 12:34 amWNW 2 4----30.11- 42.3- 39.0---
2024-05-18 12:25 amWNW 3 4----30.11- 42.1- 38.5---
2024-05-18 12:16 amWNW 3 3----30.11- 42.4- 38.3---
2024-05-18 12:05 amWNW 2 4----30.11- 42.8- 38.5---
2024-05-17 11:55 pm NW 3 4----30.11- 42.8- 38.5---
2024-05-17 11:45 pmWNW 3 4----30.11- 43.0- 38.3---
2024-05-17 11:35 pmWNW 3 4----30.11- 43.2- 38.1---
2024-05-17 11:25 pmWNW 3 5----30.11- 43.2- 37.8---
2024-05-17 11:15 pmWNW 3 4----30.11- 43.7- 37.9---
2024-05-17 11:04 pm NW 3 4----30.11- 43.0- 37.2---
2024-05-17 10:55 pm NW 2 3----30.11- 43.5- 37.6---
2024-05-17 10:44 pm NW 3 4----30.11- 43.7- 37.6---
2024-05-17 10:34 pm NW 3 4----30.11- 43.7- 37.6---
2024-05-17 10:24 pm NW 3 4----30.10- 43.9- 37.6---
2024-05-17 10:14 pm NW 3 4----30.10- 43.9- 37.6---
2024-05-17 10:04 pmNNW 2 4----30.10- 44.6- 37.9---
2024-05-17 09:54 pmNNW 3 3----30.10- 45.9- 37.6---
2024-05-17 09:44 pmNNW 2 4----30.10- 47.5- 37.9---
2024-05-17 09:34 pmNNE 1 3----30.10- 48.7- 37.8---
2024-05-17 09:24 pm NE 2 3----30.10- 48.6- 37.4---
2024-05-17 09:15 pm NE 3 5----30.10- 48.6- 37.9---
2024-05-17 09:05 pm NE 3 4----30.10- 48.6- 37.8---
2024-05-17 08:55 pm NE 4 6----30.10- 48.4- 38.1---
2024-05-17 08:45 pm NE 5 6----30.10- 48.4- 37.8---
2024-05-17 08:35 pm NE 5 7----30.10- 48.2- 37.2---
2024-05-17 08:25 pm NE 5 7----30.09- 48.4- 37.6---
2024-05-17 08:14 pm NE 5 7----30.09- 48.6- 37.9---
2024-05-17 08:05 pm NE 6 7----30.09- 48.7- 37.9---
2024-05-17 07:55 pm NE 6 7----30.09- 48.9- 38.5---
2024-05-17 07:44 pm NE 6 7----30.09- 48.9- 37.9---
2024-05-17 07:34 pm NE 6 8----30.09- 48.9- 37.9---
2024-05-17 07:25 pm NE 6 7----30.10- 48.9- 37.9---
2024-05-17 07:14 pm NE 6 7----30.09- 48.9- 38.5---
2024-05-17 07:04 pm NE 6 7----30.09- 49.1- 38.7---
2024-05-17 06:54 pm NE 6 8----30.09- 49.1- 39.2---
2024-05-17 06:44 pm NE 6 7----30.09- 49.5- 39.2---
2024-05-17 06:34 pmENE 6 7----30.09- 49.8- 39.2---
2024-05-17 06:24 pmENE 5 7----30.09- 50.4- 38.3---
2024-05-17 06:14 pmENE 5 6----30.09- 51.1- 37.4---
2024-05-17 06:05 pmENE 4 6----30.09- 51.4- 37.6---
2024-05-17 05:55 pm E 2 3----30.09- 51.6- 37.0---
2024-05-17 05:45 pm E 1 2----30.09- 51.6- 36.9---
2024-05-17 05:25 pmSSE 1 2----30.09- 52.2- 36.7---
2024-05-17 05:15 pm S 2 2----30.09- 52.9- 37.0---
2024-05-17 05:05 pm S 1 2----30.09- 52.3- 37.6---
2024-05-17 04:54 pmSSE 1 2----30.09- 51.8- 37.2---
2024-05-17 04:44 pm SE 2 3----30.09- 51.8- 37.0---
2024-05-17 04:34 pm SE 2 3----30.09- 51.8- 37.4---
2024-05-17 04:24 pmSSE 1 3----30.09- 50.9- 37.6---
2024-05-17 04:14 pmSSE 2 3----30.09- 50.7- 38.1---
2024-05-17 03:54 pm SE 2 3----30.09- 51.8- 37.6---
2024-05-17 03:44 pmSSE 2 3----30.09- 52.5- 37.2---
2024-05-17 03:35 pmSSW 3 4----30.09- 52.3- 37.9---
2024-05-17 03:24 pm S 2 3----30.09- 51.4- 38.5---
2024-05-17 03:14 pm S 3 3----30.08- 50.7- 37.9---
2024-05-17 03:05 pm S 3 4----30.08- 49.6- 37.4---
2024-05-17 02:54 pmSSE 3 4----30.08- 50.9- 37.9---